Simultaneous Nadir Overpasses (SNOs) Predictions

Prediction of SNOs between GOES-15 and NOAA-19 Satellite Orbit:

Table of predicted SNOs for the next 14.0 days since TLE Epoch: 12/9/2024
Index Date Time (GOES-15) GOES-15 Lat,Lon NOAA-19 Lat,Lon Distance(km) Time Diff (sec)
1 12/09/2024 05:24:15 -0.13, 61.42 -0.39, 62.45 117.77 80
2 12/10/2024 05:11:45 -0.13, 61.41 -1.08, 65.49 465.17 80
3 12/11/2024 17:43:19 0.12, 61.47 -0.69, 57.91 405.85 80
4 12/12/2024 17:30:49 0.12, 61.47 -0.01, 60.95 59.46 80
5 12/13/2024 17:15:41 0.12, 61.47 0.73, 63.97 286.74 80
6 12/16/2024 05:34:30 -0.11, 61.40 0.31, 59.49 218.09 80
7 12/17/2024 05:24:40 -0.10, 61.40 -0.34, 62.53 128.68 80
8 12/18/2024 05:12:11 -0.10, 61.40 -1.05, 65.57 475.45 80
9 12/19/2024 17:43:45 0.09, 61.45 -0.72, 57.99 394.99 80
10 12/20/2024 17:31:15 0.09, 61.45 -0.01, 61.02 48.75 80
11 12/21/2024 17:16:06 0.09, 61.45 0.70, 64.05 297.41 80
